DW5775 Weather Reports


time (UTC)temp
C
wind
direction
speed
KPH
gust
KPH
rain 1hr
cm
rain 24hr
cm
rain mn
cm
humidity
%
barometer
mb
20260503193059 18 188 4.8 14.5 0.00 0.00 0.00 36 1009.4
20260503191556 18 4 4.8 19.3 0.00 0.00 0.00 37 1009.5
20260503190052 17 319 6.4 19.3 0.00 0.00 0.00 36 1009.8
20260503184605 16 273 4.8 9.7 0.00 0.00 0.00 39 1010.0
20260503183051 16 108 3.2 14.5 0.00 0.00 0.00 39 1010.3
20260503181548 16 285 4.8 24.1 0.00 0.00 0.00 40 1010.6
20260503180041 16 127 3.2 19.3 0.00 0.00 0.00 45 1010.7
20260503174538 15 181 4.8 14.5 0.00 0.00 0.00 42 1010.9
20260503173037 16 309 3.2 20.9 0.00 0.00 0.00 43 1011.0
20260503171547 15 327 4.8 17.7 0.00 0.00 0.00 43 1011.5
20260503081507 0 229 0.0 0.0 0.00 0.00 0.00 84 1014.5
20260503071505 0 229 0.0 0.0 0.00 0.00 0.00 85 1014.6
20260503054559 0 229 0.0 0.0 0.00 0.00 0.00 81 1015.1
20260503053049 1 229 0.0 0.0 0.00 0.00 0.00 80 1015.2
20260503051547 1 229 0.0 0.0 0.00 0.00 0.00 80 1015.2
20260503050048 1 229 0.0 0.0 0.00 0.00 0.00 79 1015.3
20260503044551 1 229 0.0 0.0 0.00 0.00 0.00 79 1015.4
20260503043047 1 229 0.0 0.0 0.00 0.00 0.00 81 1015.3
20260503041540 1 229 0.0 0.0 0.00 0.00 0.00 81 1015.3
20260503040040 0 229 0.0 0.0 0.00 0.00 0.00 82 1015.4
20260503034538 0 229 0.0 0.0 0.00 0.00 0.00 80 1015.5
20260503033037 1 229 0.0 0.0 0.00 0.00 0.00 79 1015.5
20260503031536 1 229 0.0 0.0 0.00 0.00 0.00 78 1015.6
20260503030035 1 229 0.0 0.0 0.00 0.00 0.00 77 1015.6
20260503024535 1 229 0.0 0.0 0.00 0.00 0.00 77 1015.7
20260503023035 1 229 0.0 0.0 0.00 0.00 0.00 75 1015.8
20260503021534 1 229 0.0 0.0 0.00 0.00 0.00 74 1015.9
20260503020035 2 229 0.0 0.0 0.00 0.00 0.00 72 1015.7
20260503014533 2 229 0.0 0.0 0.00 0.00 0.00 70 1015.8
20260503013036 3 229 0.0 0.0 0.00 0.00 0.00 68 1015.6
20260503011540 3 229 0.0 0.0 0.00 0.00 0.00 66 1015.6
20260503010037 5 229 0.0 0.0 0.00 0.00 0.00 63 1015.6
20260503004531 5 229 0.0 0.0 0.00 0.00 0.00 60 1015.5
20260503003031 6 229 0.0 0.0 0.00 0.00 0.00 54 1015.4
20260503001531 6 229 0.0 1.6 0.00 0.00 0.00 54 1015.3
20260503000043 7 312 0.0 1.6 0.00 0.00 0.00 50 1015.3
20260502234529 8 288 0.0 3.2 0.00 0.00 0.00 49 1015.4
20260502233029 8 198 0.0 3.2 0.00 0.00 0.00 49 1015.5
20260502231533 8 104 0.0 3.2 0.00 0.00 0.00 48 1015.5
20260502230027 8 246 0.0 4.8 0.00 0.00 0.00 47 1015.5
20260502224526 8 309 0.0 9.7 0.00 0.00 0.00 47 1015.5
20260502223029 8 308 0.0 9.7 0.00 0.00 0.00 48 1015.5
20260502221524 8 315 3.2 6.4 0.00 0.00 0.00 48 1015.6
20260502220024 8 89 0.0 4.8 0.00 0.00 0.00 46 1015.6
20260502214523 8 305 0.0 8.0 0.00 0.00 0.00 48 1015.6
20260502213022 8 354 3.2 6.4 0.00 0.00 0.00 46 1015.6
20260502211529 8 276 1.6 4.8 0.00 0.00 0.00 47 1015.7
20260502210019 8 281 1.6 8.0 0.00 0.00 0.00 47 1015.7
20260502204521 8 291 1.6 8.0 0.00 0.00 0.00 47 1015.8
20260502203017 8 232 0.0 4.8 0.00 0.00 0.00 47 1016.0
20260502201515 8 233 1.6 6.4 0.00 0.00 0.00 47 1016.1
20260502200014 8 155 1.6 6.4 0.00 0.00 0.00 47 1016.2
20260502194512 8 311 1.6 4.8 0.00 0.00 0.00 48 1016.3